Location: Newark
(41.9000°N, 12.4833°E)
Time: 23:22:06
(UTC+00:00)

STARS - Visible Passes

Search period start: 20 November 2019 00:00
Search period end: 30 November 2019 00:00
Orbit: 624 x 640 km, 98.3° (Epoch: 20 November)

Date Brightness Start Highest point End Pass type
(mag) Time Alt. Az. Time Alt. Az. Time Alt. Az.
20 Nov ? 05:12:30 10° E 05:14:26 13° ENE 05:16:22 10° NE visible
21 Nov ? 05:32:04 10° ESE 05:35:14 20° ENE 05:38:25 10° NNE visible
25 Nov ? 05:20:40 10° E 05:23:11 15° ENE 05:25:44 10° NNE visible
26 Nov ? 05:40:32 10° ESE 05:44:00 24° ENE 05:47:31 10° NNE visible
29 Nov ? 05:09:44 10° E 05:11:10 11° ENE 05:12:36 10° NE visible
